H-2A DEB, 43675

Orbit data source: Space-Track

H-2A DEB, 43675 is space debris in SSO originally from a launch on Mon, 29 Oct 2018 UTC launched from the Tanegashima Space Center (TNSTA). Debris objects in space refer to the collection of defunct objects orbiting the Earth. Examples of debris include non-operational satellites, rocket bodies, and fragments generated from explosions, collisions, or faulty payload assembly.

Loading next visibility...
Identifier
43675, 2018-084E
Orbit
SSO
Country
Flag of JPJP / JPN
Related business
Manufacturer
Kawasaki
Mission
Spacecraft
Bus & Motor
Unknown
Mass
~100 kg wet, ~100 kg dry
Launch date (UTC)
2018-10-29 (7 years ago)
Launch vehicle
Unknown
Launch site
Tanegashima Space Center (TNSTA)
Object type
Payload
Rocket body
Debris
Shape & HBR
Cone, 2.0 m
Radar Cross Section
6.654 m², Large (>1 m²)

Expand to show TLE details & history
Last TLE update: 11 hours ago

TLE from 11 hours ago
0 H-2A DEB
1 43675U 18084E   26034.14677836  .00250410  00000-0  19298-2 0  9996
2 43675  98.0220 245.2750 0004419  26.0859 334.0623 15.71208192397658
Epoch: 2026-02-03T03:31Z
TLE epoch observation values (Epoch: 2026-02-03T03:31:21.650Z)
Latitude
-0.00009°
Longitude
59.10291°
Altitude
355.907 km
Speed
7.697 km/s
True Right ascension
16h 21m 06s
True Declination
0° 00' 00"
Sunlit
Object was in daylight at epoch
Visualization orbit readout
Latitude
Unknown
Longitude
Unknown
Altitude
Unknown
Speed
Unknown
Apparent Right ascension
Unknown
Apparent Declination
Unknown
Sunlit
N/A
Visualization observer readout
Local Sidereal Time
16:00:52
Azimuth
Unknown
Elevation
Unknown
Doppler factor
Unknown
Orbital elements
Apogee altitude
355.343 km
Perigee altitude
349.395 km
Semi-major axis
6,730.506 km
Eccentricity
0.00044
Inclination
98.022°
RAAN
245.275°
Arg. of periapsis
26.0859°
True anomaly
334.04014°
Mean anomaly
334.0623°
Eccentric anomaly
334.05122°
Mean motion
3.93072 °/min
Orbital period
91.59 mins
BSTAR
0.0019298
Loading maneuver chart data...
Computing Atmospheric mass density...
Loading historical data...
Loading historical data...
Loading historical data...
Loading historical data...
Loading historical data...
Loading historical data...
Loading historical data...

Documentation

Showing up to 5 results
|